Location: Bannatyne
(13.0833°N, 59.5333°W)
Time: 17:08:10
(UTC+00:00)

Altair - Visible Passes

Search period start: 29 January 2020 00:00
Search period end: 08 February 2020 00:00
Orbit: 1502 x 1682 km, 47.2° (Epoch: 28 January)

Date Brightness Start Highest point End Pass type
(mag) Time Alt. Az. Time Alt. Az. Time Alt. Az.
29 Jan 8.8 07:52:02 10° S 08:00:23 34° SE 08:08:59 10° ENE visible
29 Jan 7.7 09:55:27 10° WSW 10:04:52 55° NW 10:14:38 10° NNE visible
30 Jan 8.9 07:27:16 10° S 07:35:15 30° SE 07:43:26 10° ENE visible
30 Jan 7.6 09:30:09 10° SW 09:39:39 61° NW 09:49:30 10° NNE visible
31 Jan 9.0 07:03:24 12° S 07:10:06 27° SE 07:17:49 10° ENE visible
31 Jan 7.5 09:04:54 10° SW 09:14:26 67° NW 09:24:21 10° NE visible
01 Feb 9.1 06:43:12 22° SE 06:44:58 23° SE 06:52:08 10° ENE visible
01 Feb 7.4 08:41:27 17° SW 08:49:14 74° NW 08:59:12 10° NE visible
02 Feb 9.3 06:21:47 19° ESE 06:21:47 19° ESE 06:26:20 10° E visible
02 Feb 7.4 08:19:58 41° SW 08:24:02 82° NW 08:34:01 10° NE visible
03 Feb 9.7 05:59:46 11° E 05:59:46 11° E 06:00:24 10° E visible
03 Feb 7.3 07:57:55 76° SW 07:58:52 89° WNW 08:08:48 10° NE visible
03 Feb 8.6 09:57:21 10° W 10:04:27 22° NW 10:11:46 10° NNE visible
04 Feb 7.7 07:35:27 65° ENE 07:35:27 65° ENE 07:43:35 10° NE visible
04 Feb 8.5 09:33:35 15° W 09:39:07 25° NW 09:46:48 10° NNE visible
05 Feb 8.4 07:12:44 39° NE 07:12:44 39° NE 07:18:21 10° NE visible
05 Feb 8.3 09:10:49 23° WNW 09:13:47 27° NW 09:21:50 10° NNE visible
06 Feb 9.0 06:49:46 24° NE 06:49:46 24° NE 06:53:05 10° NE visible
06 Feb 8.2 08:47:51 30° NW 08:48:29 30° NW 08:56:49 10° NNE visible
07 Feb 9.5 06:26:38 14° NE 06:26:38 14° NE 06:27:47 10° NE visible
07 Feb 8.3 08:24:42 32° NNW 08:24:42 32° NNW 08:31:48 10° NNE visible
